EW2785 Weather Reports


time (UTC)temp
F
wind
direction
speed
knots
gust
knots
rain 1hr
in
rain 24hr
in
rain mn
in
humidity
%
barometer
mb
20260905184514 67 273 0.0 6.1 0.00 0.00 0.00 83 1011.2
20260905183016 68 295 0.9 8.7 0.00 0.00 0.00 80 1011.0
20260905181517 68 169 0.0 7.8 0.00 0.00 0.00 80 1011.0
20260905180019 68 334 0.9 5.2 0.00 0.00 0.00 80 1011.0
20260905174510 68 294 2.6 6.1 0.00 0.00 0.00 80 1010.9
20260905173009 68 245 0.9 8.7 0.00 0.00 0.00 82 1010.9
20260905171508 67 355 1.7 7.0 0.00 0.00 0.00 83 1010.9
20260905170006 67 5 0.9 5.2 0.00 0.00 0.00 83 1011.0
20260905164505 67 259 0.9 7.0 0.00 0.00 0.00 84 1011.0
20260905163005 66 293 0.9 8.7 0.00 0.00 0.00 85 1011.2
20260905161503 66 62 0.9 7.8 0.00 0.00 0.00 84 1011.3
20260905160001 66 313 1.7 7.0 0.00 0.00 0.00 85 1011.2
20260905154502 66 355 0.9 7.0 0.00 0.00 0.00 86 1011.3
20260905153111 66 350 0.0 9.6 0.00 0.00 0.00 86 1011.4
20260905151558 65 34 0.9 7.8 0.00 0.00 0.00 88 1011.4
20260905150055 64 321 0.0 5.2 0.00 0.00 0.00 89 1011.4
20260905144555 64 319 0.9 5.2 0.00 0.00 0.00 89 1011.2
20260905143054 64 348 3.5 6.1 0.00 0.00 0.00 89 1011.3
20260905141556 63 329 1.7 5.2 0.00 0.00 0.00 90 1011.4
20260905134548 63 51 0.9 7.8 0.00 0.00 0.00 93 1011.3
20260905133047 62 273 0.9 5.2 0.00 0.00 0.00 93 1011.3
20260905131559 61 305 0.0 4.3 0.00 0.00 0.00 93 1011.1
20260905130049 61 49 0.0 2.6 0.00 0.00 0.00 93 1011.1
20260905124544 60 5 0.9 5.2 0.00 0.00 0.00 93 1011.0
20260905123043 60 355 0.0 1.7 0.00 0.00 0.00 93 1011.1
20260905121542 59 294 0.0 0.9 0.00 0.00 0.00 93 1010.9
20260905120042 59 294 0.0 0.0 0.00 0.00 0.00 93 1010.8
20260905114540 58 324 0.0 0.9 0.00 0.00 0.00 93 1010.8
20260905113038 58 324 0.0 0.0 0.00 0.00 0.00 93 1010.8
20260905111600 58 324 0.0 0.0 0.00 0.00 0.00 93 1010.6
20260905110036 58 324 0.0 0.0 0.00 0.00 0.00 93 1010.4
20260905104536 57 324 0.0 0.0 0.00 0.00 0.00 93 1010.3
20260905103035 57 324 0.0 0.0 0.00 0.00 0.00 93 1010.3
20260905101535 57 324 0.0 0.0 0.00 0.00 0.00 93 1010.3
20260905100034 57 324 0.0 0.0 0.00 0.00 0.00 92 1010.2
20260905094533 56 324 0.0 0.0 0.00 0.00 0.00 92 1010.2
20260905093036 56 324 0.0 0.0 0.00 0.00 0.00 92 1010.0
20260905091532 56 324 0.0 0.0 0.00 0.00 0.00 91 1010.0
20260905090031 56 324 0.0 0.0 0.00 0.00 0.00 91 1009.9
20260905084531 56 324 0.0 0.0 0.00 0.00 0.00 91 1009.9
20260905083028 56 324 0.0 0.0 0.00 0.00 0.00 91 1009.9
20260905081527 57 324 0.0 0.0 0.00 0.00 0.00 91 1010.0
20260905080026 57 324 0.0 0.0 0.00 0.00 0.00 90 1010.0
20260905074525 57 324 0.0 0.0 0.00 0.00 0.00 90 1009.8
20260905073025 58 324 0.0 0.0 0.00 0.00 0.00 90 1009.7
20260905071536 58 324 0.0 0.0 0.00 0.00 0.00 90 1009.8
20260905070018 59 324 0.0 0.0 0.00 0.00 0.00 90 1010.0
20260905064517 59 324 0.0 0.0 0.00 0.00 0.00 89 1010.1
20260905063014 60 324 0.0 0.0 0.00 0.00 0.00 88 1010.1
20260905061512 60 324 0.0 0.0 0.00 0.00 0.00 88 1010.3
20260905060011 60 324 0.0 0.0 0.00 0.00 0.00 88 1010.4
20260905054527 61 324 0.0 0.0 0.00 0.00 0.00 88 1010.2
20260905053007 61 324 0.0 0.0 0.00 0.00 0.00 88 1010.3
20260905051506 62 324 0.0 0.0 0.00 0.00 0.00 87 1010.2
20260905050005 62 324 0.0 0.0 0.00 0.00 0.00 87 1010.3
20260905044502 62 324 0.0 0.0 0.00 0.00 0.00 86 1010.3
20260905043100 63 324 0.0 0.0 0.00 0.00 0.00 86 1010.5
20260905041556 63 324 0.0 0.0 0.00 0.00 0.00 85 1010.6
20260905040055 64 324 0.0 0.0 0.00 0.00 0.00 83 1010.5
20260905034555 64 324 0.0 0.0 0.00 0.00 0.00 82 1010.5
20260905033101 65 324 0.0 0.0 0.00 0.00 0.00 82 1010.4
20260905031554 65 324 0.0 0.0 0.00 0.00 0.00 82 1010.1
20260905030053 66 324 0.0 0.0 0.00 0.00 0.00 81 1010.4
20260905024604 66 324 0.0 0.0 0.00 0.00 0.00 80 1010.4
20260905023058 66 324 0.0 1.7 0.00 0.00 0.00 80 1010.4
20260905021552 66 325 0.0 0.9 0.00 0.00 0.00 79 1010.6
20260905020104 66 324 0.0 0.0 0.00 0.00 0.00 79 1010.7
20260905014553 67 324 0.0 1.7 0.00 0.00 0.00 79 1010.6
20260905013051 67 324 0.0 0.0 0.00 0.00 0.00 79 1010.7
20260905011551 67 324 0.0 0.0 0.00 0.00 0.00 79 1010.7
20260905010049 68 324 0.0 0.9 0.00 0.00 0.00 78 1010.5
20260905004550 68 325 0.0 0.9 0.00 0.00 0.00 79 1010.6
20260905003049 68 327 0.0 0.9 0.00 0.00 0.00 78 1010.5
20260905001548 69 327 0.0 2.6 0.00 0.00 0.00 78 1010.6
20260905000048 69 13 1.7 4.3 0.00 0.00 0.00 77 1010.4
20260904234547 70 342 0.0 2.6 0.00 0.00 0.00 76 1010.0
20260904233051 70 333 0.0 0.0 0.00 0.00 0.00 76 1010.0
20260904231546 71 333 0.0 0.0 0.00 0.00 0.00 74 1009.8
20260904230046 71 333 0.0 0.9 0.00 0.00 0.00 73 1009.9
20260904224600 72 333 0.0 1.7 0.00 0.00 0.00 72 1009.8
20260904223048 72 327 0.0 0.9 0.00 0.00 0.00 73 1009.7
20260904221548 73 295 0.0 0.9 0.00 0.00 0.00 73 1009.7
20260904220044 73 295 0.0 0.9 0.00 0.00 0.00 73 1009.7
20260904214546 73 294 0.0 0.9 0.00 0.00 0.00 72 1009.7
20260904213042 73 294 0.0 0.9 0.00 0.00 0.00 70 1009.7
20260904211541 73 294 0.0 0.9 0.00 0.00 0.00 69 1009.8
20260904210049 74 319 0.0 2.6 0.00 0.00 0.00 68 1009.9
20260904204539 74 249 0.0 4.3 0.00 0.00 0.00 68 1009.9
20260904203039 74 346 0.0 3.5 0.00 0.00 0.00 66 1009.9
20260904201550 75 298 0.9 5.2 0.00 0.00 0.00 64 1010.0
20260904200038 75 326 0.0 2.6 0.00 0.00 0.00 65 1009.9
20260904194544 75 258 0.0 2.6 0.00 0.00 0.00 66 1009.9
20260904193036 74 11 0.9 4.3 0.00 0.00 0.00 67 1009.9
20260904191537 74 283 0.9 5.2 0.00 0.00 0.00 64 1010.0
20260904190034 74 232 0.9 5.2 0.00 0.00 0.00 65 1010.1